星链-34040 (STARLINK-34040)

导读 | 豆包AI

STARLINK-34040是美国SpaceX公司星链星座的成员,于2025年5月7日发射,属于星链大规模低轨通信卫星组网计划中的量产卫星。该卫星运行于近地轨道,搭载Ku/Ka波段通信载荷与光学星间链路,采用氪工质霍尔推进器,具备自主避撞能力,旨在为全球提供低时延、高覆盖的宽带互联网接入服务,设计服役寿命约5-7年。

基本信息
目录编号:
63839
目录名称:
STARLINK-34040
国际标识:
2025-093D
轨道中心:
EARTH
卫星名称:
星链-34040
卫星全名:
星链-34040 (STARLINK-34040)
卫星状态:
在轨 (已飞行357 天)
发射日期:
2025-05-07 UTC
国别 :
美国 (US)
星等 :
--
轨道信息
数据来源 国际轨道数据
星历时间: 2026-04-29T10:33:12+0800
15小时前
查看轨道信息
半长轴: 6861.15km
偏心率: 0.0002723
轨道倾角: 43.000°
近地点辐角 277.582°
升交点赤经 153.098°
平近点角 82.472°
近地点: 481.144km
远地点: 484.882km
周期: 94.266分钟
每日圈数: 15.275921
详细信息
固有亮度:
5
最大亮度:
2.5
卫星平台:
Starlink V1.0
覆盖范围:
全球
运营商:
太空探索技术公司
运营商所在国:
美国
制造商(研发单位):
太空探索技术公司
制造商所在国:
美国
使用方式:
暂无
卫星简介
Starlink 计划是 SpaceX 推出的全球卫星互联网项目,通过发射低轨道卫星,为全球尤其是偏远地区提供高速、低延迟的互联网服务。自 2019 年起,Starlink 已部署数千颗卫星,旨在缩小全球数字鸿沟,推动互联网普及。该项目还为军事、航空等行业提供通信支持,带来广泛经济效益。
2D轨道图
3D轨道图
轨道高度分析图
轨道倾角分析图
轨道综合分析图
查看轨道综合分析图